Showing default

VANGUARD 3, 20

Orbit data source: Space-Track

VANGUARD 3, 20 is a payload satellite owned by GSFC (US) in LEO that was launched on Fri, 18 Sep 1959 UTC via a VANGUARD launch vehicle from the Air Force Eastern Test Range (AFETR). Payload-class satellites include a variety of spacecraft equipped with specific instruments for various scientific and technological missions. These include communications satellites like Starlink; space stations such as the ISS; scientific satellites like the Hubble; Earth observation satellites from companies like Planet Labs, Umbra, and HawkEye 360; GPS; miniature CubeSats for education and research; and military/defense satellites.

Loading next visibility...
Identifier
20, 1959-007A
Orbit
LEO
Last TLE update
9 hours ago
Origin
Manufacturer
NRL
Mission
Civil Science
Bus & Motor
NRL 20", Unknown motor
Mass
47 kg wet, 23 kg dry
Launch date (UTC)
1959-09-18 (66 years ago)
Launch vehicle
VANGUARD
Launch site
Air Force Eastern Test Range (AFETR)
Object type
Payload
Rocket body
Debris
Shape & HBR
Sphere + Cyl, 1.3 m
Radar Cross Section
1.104 m², Medium (>0.1 m² and < 1m²)

Expand to show TLE details & history

TLE from 9 hours ago
0 VANGUARD 3
1 00020U 59007A   25199.56846847  .00001107  00000-0  45874-3 0  9997
2 00020  33.3436  27.2853 1641068  66.1617 310.2105 11.60756486445814
Epoch: 2025-07-18T13:38Z
TLE epoch observation values (Epoch: 2025-07-18T13:38:35.675Z)
Latitude
-0.00003°
Longitude
-113.98145°
Altitude
1,138.733 km
Speed
7.597 km/s
True Right ascension
01h 49m 08s
True Declination
0° 00' 00"
Sunlit
Object was in daylight at epoch
Visualization orbit readout
Latitude
-14.75424°
Longitude
88.12023°
Altitude
2,778.816 km
Speed
6.223 km/s
Apparent Right ascension
17h 31m 41s
Apparent Declination
-41° 49' 12"
Sunlit
Object is in daylight
Visualization observer readout
Local Sidereal Time
11:42:48
Azimuth
125.687° SE
Elevation
-23.587°
Doppler factor
1
Orbital elements
Apogee altitude
3,217.225 km
Perigee altitude
511.865 km
Semi-major axis
8,242.682 km
Eccentricity
0.16411
Inclination
33.3436°
RAAN
27.2853°
Arg. of periapsis
66.1617°
True anomaly
293.8993°
Mean anomaly
310.2105°
Eccentric anomaly
302.25925°
Mean motion
2.90028 °/min
Orbital period
124.13 mins
BSTAR
0.00045874
Loading maneuver chart data...
Loading SW <> Apogee altitude chart data...
Loading historical data...
Loading historical data...
Loading historical data...
Loading historical data...
Loading historical data...
Loading historical data...
Loading historical data...
Other satellites on launch #7 in the year 1959 (1959-09-18 UTC)
|